Year,Month,Day,Hour,Minute,Value (Times are PST for temperature in C)
2013,04,24,00,00,6.90
2013,04,24,00,01,6.90
2013,04,24,00,02,6.90
2013,04,24,00,03,6.90
2013,04,24,00,04,6.90
2013,04,24,00,05,6.90
2013,04,24,00,06,6.90
2013,04,24,00,07,6.80
2013,04,24,00,08,6.80
2013,04,24,00,09,6.80
2013,04,24,00,10,6.80
2013,04,24,00,11,6.80
2013,04,24,00,12,6.80
2013,04,24,00,13,6.80
2013,04,24,00,14,6.80
2013,04,24,00,15,6.80
2013,04,24,00,16,6.70
2013,04,24,00,17,6.70
2013,04,24,00,18,6.70
2013,04,24,00,19,6.70
2013,04,24,00,20,6.70
2013,04,24,00,21,6.60
2013,04,24,00,22,6.60
2013,04,24,00,23,6.60
2013,04,24,00,24,6.60
2013,04,24,00,25,6.60
2013,04,24,00,26,6.50
2013,04,24,00,27,6.50
2013,04,24,00,28,6.50
2013,04,24,00,29,6.40
2013,04,24,00,30,6.40
2013,04,24,00,31,6.40
2013,04,24,00,32,6.40
2013,04,24,00,33,6.40
2013,04,24,00,34,6.40
2013,04,24,00,35,6.40
2013,04,24,00,36,6.40
2013,04,24,00,37,6.30
2013,04,24,00,38,6.30
2013,04,24,00,39,6.30
2013,04,24,00,40,6.30
2013,04,24,00,41,6.30
2013,04,24,00,42,6.30
2013,04,24,00,43,6.30
2013,04,24,00,44,6.30
2013,04,24,00,45,6.30
2013,04,24,00,46,6.30
2013,04,24,00,47,6.30
2013,04,24,00,48,6.30
2013,04,24,00,49,6.30
2013,04,24,00,50,6.30
2013,04,24,00,51,6.30
2013,04,24,00,52,6.30
2013,04,24,00,53,6.30
2013,04,24,00,54,6.20
2013,04,24,00,55,6.20
2013,04,24,00,56,6.20
2013,04,24,00,57,6.20
2013,04,24,00,58,6.10
2013,04,24,00,59,6.10
2013,04,24,01,00,6.10
2013,04,24,01,01,6.10
2013,04,24,01,02,6.10
2013,04,24,01,03,6.10
2013,04,24,01,04,6.10
2013,04,24,01,05,6.10
2013,04,24,01,06,6.10
2013,04,24,01,07,6.10
2013,04,24,01,08,6.00
2013,04,24,01,09,6.00
2013,04,24,01,10,6.00
2013,04,24,01,11,6.00
2013,04,24,01,12,6.00
2013,04,24,01,13,6.00
2013,04,24,01,14,6.00
2013,04,24,01,15,5.90
2013,04,24,01,16,5.90
2013,04,24,01,17,5.90
2013,04,24,01,18,5.90
2013,04,24,01,19,5.90
2013,04,24,01,20,5.80
2013,04,24,01,21,5.80
2013,04,24,01,22,5.80
2013,04,24,01,23,5.80
2013,04,24,01,24,5.80
2013,04,24,01,25,5.80
2013,04,24,01,26,5.70
2013,04,24,01,27,5.70
2013,04,24,01,28,5.70
2013,04,24,01,29,5.70
2013,04,24,01,30,5.70
2013,04,24,01,31,5.70
2013,04,24,01,32,5.70
2013,04,24,01,33,5.70
2013,04,24,01,34,5.70
2013,04,24,01,35,5.70
2013,04,24,01,36,5.60
2013,04,24,01,37,5.60
2013,04,24,01,38,5.60
2013,04,24,01,39,5.50
2013,04,24,01,40,5.50
2013,04,24,01,41,5.50
2013,04,24,01,42,5.40
2013,04,24,01,43,5.40
2013,04,24,01,44,5.40
2013,04,24,01,45,5.40
2013,04,24,01,46,5.40
2013,04,24,01,47,5.40
2013,04,24,01,48,5.40
2013,04,24,01,49,5.40
2013,04,24,01,50,5.30
2013,04,24,01,51,5.30
2013,04,24,01,52,5.30
2013,04,24,01,53,5.30
2013,04,24,01,54,5.30
2013,04,24,01,55,5.30
2013,04,24,01,56,5.30
2013,04,24,01,57,5.30
2013,04,24,01,58,5.30
2013,04,24,01,59,5.40
2013,04,24,02,00,5.30
2013,04,24,02,01,5.40
2013,04,24,02,02,5.40
2013,04,24,02,03,5.40
2013,04,24,02,04,5.40
2013,04,24,02,05,5.40
2013,04,24,02,06,5.40
2013,04,24,02,07,5.30
2013,04,24,02,08,5.30
2013,04,24,02,09,5.30
2013,04,24,02,10,5.30
2013,04,24,02,11,5.30
2013,04,24,02,12,5.30
2013,04,24,02,13,5.40
2013,04,24,02,14,5.40
2013,04,24,02,15,5.40
2013,04,24,02,16,5.40
2013,04,24,02,17,5.50
2013,04,24,02,18,5.50
2013,04,24,02,19,5.60
2013,04,24,02,20,5.70
2013,04,24,02,21,5.70
2013,04,24,02,22,5.70
2013,04,24,02,23,5.70
2013,04,24,02,24,5.70
2013,04,24,02,25,5.70
2013,04,24,02,26,5.70
2013,04,24,02,27,5.70
2013,04,24,02,28,5.80
2013,04,24,02,29,5.80
2013,04,24,02,30,5.80
2013,04,24,02,31,5.80
2013,04,24,02,32,5.80
2013,04,24,02,33,5.80
2013,04,24,02,34,5.80
2013,04,24,02,35,5.80
2013,04,24,02,36,5.80
2013,04,24,02,37,5.80
2013,04,24,02,38,5.70
2013,04,24,02,39,5.70
2013,04,24,02,40,5.70
2013,04,24,02,41,5.70
2013,04,24,02,42,5.70
2013,04,24,02,43,5.60
2013,04,24,02,44,5.60
2013,04,24,02,45,5.60
2013,04,24,02,46,5.60
2013,04,24,02,47,5.60
2013,04,24,02,48,5.60
2013,04,24,02,49,5.60
2013,04,24,02,50,5.60
2013,04,24,02,51,5.60
2013,04,24,02,52,5.60
2013,04,24,02,53,5.60
2013,04,24,02,54,5.60
2013,04,24,02,55,5.50
2013,04,24,02,56,5.40
2013,04,24,02,57,5.40
2013,04,24,02,58,5.30
2013,04,24,02,59,5.30
2013,04,24,03,00,5.20
2013,04,24,03,01,5.20
2013,04,24,03,02,5.10
2013,04,24,03,03,5.00
2013,04,24,03,04,5.00
2013,04,24,03,05,4.90
2013,04,24,03,06,4.90
2013,04,24,03,07,4.90
2013,04,24,03,08,4.80
2013,04,24,03,09,4.80
2013,04,24,03,10,4.80
2013,04,24,03,11,4.80
2013,04,24,03,12,4.80
2013,04,24,03,13,4.70
2013,04,24,03,14,4.70
2013,04,24,03,15,4.70
2013,04,24,03,16,4.70
2013,04,24,03,17,4.70
2013,04,24,03,18,4.70
2013,04,24,03,19,4.70
2013,04,24,03,20,4.70
2013,04,24,03,21,4.70
2013,04,24,03,22,4.60
2013,04,24,03,23,4.60
2013,04,24,03,24,4.60
2013,04,24,03,25,4.60
2013,04,24,03,26,4.60
2013,04,24,03,27,4.60
2013,04,24,03,28,4.60
2013,04,24,03,29,4.60
2013,04,24,03,30,4.60
2013,04,24,03,31,4.60
2013,04,24,03,32,4.60
2013,04,24,03,33,4.60
2013,04,24,03,34,4.60
2013,04,24,03,35,4.60
2013,04,24,03,36,4.60
2013,04,24,03,37,4.60
2013,04,24,03,38,4.50
2013,04,24,03,39,4.50
2013,04,24,03,40,4.60
2013,04,24,03,41,4.60
2013,04,24,03,42,4.60
2013,04,24,03,43,4.70
2013,04,24,03,44,4.70
2013,04,24,03,45,4.70
2013,04,24,03,46,4.70
2013,04,24,03,47,4.70
2013,04,24,03,48,4.70
2013,04,24,03,49,4.70
2013,04,24,03,50,4.60
2013,04,24,03,51,4.60
2013,04,24,03,52,4.60
2013,04,24,03,53,4.70
2013,04,24,03,54,4.60
2013,04,24,03,55,4.70
2013,04,24,03,56,4.60
2013,04,24,03,57,4.60
2013,04,24,03,58,4.60
2013,04,24,03,59,4.60
2013,04,24,04,00,4.60
2013,04,24,04,01,4.50
2013,04,24,04,02,4.50
2013,04,24,04,03,4.40
2013,04,24,04,04,4.40
2013,04,24,04,05,4.40
2013,04,24,04,06,4.40
2013,04,24,04,07,4.30
2013,04,24,04,08,4.20
2013,04,24,04,09,4.20
2013,04,24,04,10,4.20
2013,04,24,04,11,4.20
2013,04,24,04,12,4.10
2013,04,24,04,13,4.10
2013,04,24,04,14,4.10
2013,04,24,04,15,4.10
2013,04,24,04,16,4.10
2013,04,24,04,17,4.10
2013,04,24,04,18,4.10
2013,04,24,04,19,4.10
2013,04,24,04,20,4.00
2013,04,24,04,21,4.00
2013,04,24,04,22,4.10
2013,04,24,04,23,4.10
2013,04,24,04,24,4.10
2013,04,24,04,25,4.10
2013,04,24,04,26,4.10
2013,04,24,04,27,4.20
2013,04,24,04,28,4.20
2013,04,24,04,29,4.20
2013,04,24,04,30,4.20
2013,04,24,04,31,4.30
2013,04,24,04,32,4.30
2013,04,24,04,33,4.30
2013,04,24,04,34,4.30
2013,04,24,04,35,4.30
2013,04,24,04,36,4.20
2013,04,24,04,37,4.20
2013,04,24,04,38,4.20
2013,04,24,04,39,4.20
2013,04,24,04,40,4.20
2013,04,24,04,41,4.20
2013,04,24,04,42,4.20
2013,04,24,04,43,4.30
2013,04,24,04,44,4.30
2013,04,24,04,45,4.30
2013,04,24,04,46,4.40
2013,04,24,04,47,4.40
2013,04,24,04,48,4.40
2013,04,24,04,49,4.50
2013,04,24,04,50,4.60
2013,04,24,04,51,4.60
2013,04,24,04,52,4.60
2013,04,24,04,53,4.60
2013,04,24,04,54,4.60
2013,04,24,04,55,4.50
2013,04,24,04,56,4.50
2013,04,24,04,57,4.40
2013,04,24,04,58,4.40
2013,04,24,04,59,4.40
2013,04,24,05,00,4.30
2013,04,24,05,01,4.30
2013,04,24,05,02,4.20
2013,04,24,05,03,4.20
2013,04,24,05,04,4.20
2013,04,24,05,05,4.20
2013,04,24,05,06,4.10
2013,04,24,05,07,4.10
2013,04,24,05,08,4.10
2013,04,24,05,09,4.10
2013,04,24,05,10,4.10
2013,04,24,05,11,4.10
2013,04,24,05,12,4.20
2013,04,24,05,13,4.30
2013,04,24,05,14,4.30
2013,04,24,05,15,4.40
2013,04,24,05,16,4.50
2013,04,24,05,17,4.50
2013,04,24,05,18,4.60
2013,04,24,05,19,4.60
2013,04,24,05,20,4.60
2013,04,24,05,21,4.60
2013,04,24,05,22,4.70
2013,04,24,05,23,4.70
2013,04,24,05,24,4.70
2013,04,24,05,25,4.70
2013,04,24,05,26,4.70
2013,04,24,05,27,4.70
2013,04,24,05,28,4.70
2013,04,24,05,29,4.70
2013,04,24,05,30,4.60
2013,04,24,05,31,4.60
2013,04,24,05,32,4.50
2013,04,24,05,33,4.40
2013,04,24,05,34,4.30
2013,04,24,05,35,4.30
2013,04,24,05,36,4.30
2013,04,24,05,37,4.30
2013,04,24,05,38,4.30
2013,04,24,05,39,4.30
2013,04,24,05,40,4.30
2013,04,24,05,41,4.30
2013,04,24,05,42,4.30
2013,04,24,05,43,4.30
2013,04,24,05,44,4.20
2013,04,24,05,45,4.20
2013,04,24,05,46,4.20
2013,04,24,05,47,4.10
2013,04,24,05,48,4.10
2013,04,24,05,49,4.00
2013,04,24,05,50,4.00
2013,04,24,05,51,3.90
2013,04,24,05,52,3.90
2013,04,24,05,53,3.90
2013,04,24,05,54,3.90
2013,04,24,05,55,3.90
2013,04,24,05,56,3.90
2013,04,24,05,57,3.90
2013,04,24,05,58,3.90
2013,04,24,05,59,4.00
2013,04,24,06,00,3.90
2013,04,24,06,01,3.90
2013,04,24,06,02,4.00
2013,04,24,06,03,4.00
2013,04,24,06,04,4.00
2013,04,24,06,05,4.00
2013,04,24,06,06,4.00
2013,04,24,06,07,4.00
2013,04,24,06,08,4.10
2013,04,24,06,09,4.10
2013,04,24,06,10,4.10
2013,04,24,06,11,4.10
2013,04,24,06,12,4.10
2013,04,24,06,13,4.00
2013,04,24,06,14,3.90
2013,04,24,06,15,3.90
2013,04,24,06,16,4.00
2013,04,24,06,17,4.00
2013,04,24,06,18,4.00
2013,04,24,06,19,4.00
2013,04,24,06,20,4.00
2013,04,24,06,21,3.90
2013,04,24,06,22,4.00
2013,04,24,06,23,3.90
2013,04,24,06,24,3.90
2013,04,24,06,25,3.90
2013,04,24,06,26,3.90
2013,04,24,06,27,3.90
2013,04,24,06,28,3.90
2013,04,24,06,29,3.80
2013,04,24,06,30,3.80
2013,04,24,06,31,3.90
2013,04,24,06,32,3.90
2013,04,24,06,33,3.90
2013,04,24,06,34,3.90
2013,04,24,06,35,4.00
2013,04,24,06,36,4.10
2013,04,24,06,37,4.10
2013,04,24,06,38,4.10
2013,04,24,06,39,4.20
2013,04,24,06,40,4.20
2013,04,24,06,41,4.30
2013,04,24,06,42,4.30
2013,04,24,06,43,4.30
2013,04,24,06,44,4.40
2013,04,24,06,45,4.40
2013,04,24,06,46,4.50
2013,04,24,06,47,4.60
2013,04,24,06,48,4.70
2013,04,24,06,49,4.70
2013,04,24,06,50,4.80
2013,04,24,06,51,4.80
2013,04,24,06,52,4.90
2013,04,24,06,53,4.90
2013,04,24,06,54,4.90
2013,04,24,06,55,4.90
2013,04,24,06,56,4.90
2013,04,24,06,57,4.90
2013,04,24,06,58,5.00
2013,04,24,06,59,5.00
2013,04,24,07,00,5.00
2013,04,24,07,01,5.00
2013,04,24,07,02,5.10
2013,04,24,07,03,5.10
2013,04,24,07,04,5.20
2013,04,24,07,05,5.20
2013,04,24,07,06,5.30
2013,04,24,07,07,5.30
2013,04,24,07,08,5.40
2013,04,24,07,09,5.50
2013,04,24,07,10,5.60
2013,04,24,07,11,5.60
2013,04,24,07,12,5.70
2013,04,24,07,13,5.70
2013,04,24,07,14,5.80
2013,04,24,07,15,5.90
2013,04,24,07,16,6.10
2013,04,24,07,17,6.20
2013,04,24,07,18,6.30
2013,04,24,07,19,6.40
2013,04,24,07,20,6.60
2013,04,24,07,21,6.80
2013,04,24,07,22,6.90
2013,04,24,07,23,7.10
2013,04,24,07,24,7.20
2013,04,24,07,25,7.40
2013,04,24,07,26,7.50
2013,04,24,07,27,7.70
2013,04,24,07,28,7.80
2013,04,24,07,29,7.90
2013,04,24,07,30,7.90
2013,04,24,07,31,7.90
2013,04,24,07,32,8.00
2013,04,24,07,33,8.10
2013,04,24,07,34,8.20
2013,04,24,07,35,8.30
2013,04,24,07,36,8.40
2013,04,24,07,37,8.50
2013,04,24,07,38,8.60
2013,04,24,07,39,8.70
2013,04,24,07,40,8.90
2013,04,24,07,41,9.00
2013,04,24,07,42,9.10
2013,04,24,07,43,9.20
2013,04,24,07,44,9.30
2013,04,24,07,45,9.40
2013,04,24,07,46,9.60
2013,04,24,07,47,9.70
2013,04,24,07,48,9.80
2013,04,24,07,49,9.90
2013,04,24,07,50,10.10
2013,04,24,07,51,10.20
2013,04,24,07,52,10.30
2013,04,24,07,53,10.40
2013,04,24,07,54,10.40
2013,04,24,07,55,10.50
2013,04,24,07,56,10.50
2013,04,24,07,57,10.60
2013,04,24,07,58,10.60
2013,04,24,07,59,10.70
2013,04,24,08,00,10.70
2013,04,24,08,01,10.80
2013,04,24,08,02,10.90
2013,04,24,08,03,11.10
2013,04,24,08,04,11.30
2013,04,24,08,05,11.50
2013,04,24,08,06,11.60
2013,04,24,08,07,11.90
2013,04,24,08,08,12.00
2013,04,24,08,09,12.20
2013,04,24,08,10,12.40
2013,04,24,08,11,12.60
2013,04,24,08,12,12.70
2013,04,24,08,13,12.80
2013,04,24,08,14,12.90
2013,04,24,08,15,12.90
2013,04,24,08,16,12.90
2013,04,24,08,17,12.90
2013,04,24,08,18,12.80
2013,04,24,08,19,12.70
2013,04,24,08,20,12.60
2013,04,24,08,21,12.50
2013,04,24,08,22,12.30
2013,04,24,08,23,12.20
2013,04,24,08,24,12.10
2013,04,24,08,25,12.00
2013,04,24,08,26,11.90
2013,04,24,08,27,11.90
2013,04,24,08,28,11.90
2013,04,24,08,29,11.90
2013,04,24,08,30,11.90
2013,04,24,08,31,11.80
2013,04,24,08,32,11.70
2013,04,24,08,33,11.60
2013,04,24,08,34,11.60
2013,04,24,08,35,11.50
2013,04,24,08,36,11.40
2013,04,24,08,37,11.40
2013,04,24,08,38,11.40
2013,04,24,08,39,11.40
2013,04,24,08,40,11.30
2013,04,24,08,41,11.30
2013,04,24,08,42,11.40
2013,04,24,08,43,11.30
2013,04,24,08,44,11.40
2013,04,24,08,45,11.40
2013,04,24,08,46,11.40
2013,04,24,08,47,11.50
2013,04,24,08,48,11.50
2013,04,24,08,49,11.60
2013,04,24,08,50,11.60
2013,04,24,08,51,11.70
2013,04,24,08,52,11.70
2013,04,24,08,53,11.70
2013,04,24,08,54,11.70
2013,04,24,08,55,11.70
2013,04,24,08,56,11.70
2013,04,24,08,57,11.80
2013,04,24,08,58,11.80
2013,04,24,08,59,11.80
2013,04,24,09,00,11.80
2013,04,24,09,01,11.80
2013,04,24,09,02,11.70
2013,04,24,09,03,11.70
2013,04,24,09,04,11.70
2013,04,24,09,05,11.70
2013,04,24,09,06,11.70
2013,04,24,09,07,11.80
2013,04,24,09,08,11.80
2013,04,24,09,09,11.80
2013,04,24,09,10,11.90
2013,04,24,09,11,11.90
2013,04,24,09,12,11.90
2013,04,24,09,13,11.90
2013,04,24,09,14,12.00
2013,04,24,09,15,12.00
2013,04,24,09,16,12.10
2013,04,24,09,17,12.10
2013,04,24,09,18,12.10
2013,04,24,09,19,12.20
2013,04,24,09,20,12.20
2013,04,24,09,21,12.30
2013,04,24,09,22,12.40
2013,04,24,09,23,12.50
2013,04,24,09,24,12.50
2013,04,24,09,25,12.60
2013,04,24,09,26,12.60
2013,04,24,09,27,12.60
2013,04,24,09,28,12.60
2013,04,24,09,29,12.60
2013,04,24,09,30,12.60
2013,04,24,09,31,12.50
2013,04,24,09,32,12.50
2013,04,24,09,33,12.60
2013,04,24,09,34,12.60
2013,04,24,09,35,12.60
2013,04,24,09,36,12.60
2013,04,24,09,37,12.70
2013,04,24,09,38,12.70
2013,04,24,09,39,12.80
2013,04,24,09,40,12.80
2013,04,24,09,41,12.80
2013,04,24,09,42,12.90
2013,04,24,09,43,12.90
2013,04,24,09,44,12.90
2013,04,24,09,45,12.90
2013,04,24,09,46,13.00
2013,04,24,09,47,13.00
2013,04,24,09,48,13.10
2013,04,24,09,49,13.10
2013,04,24,09,50,13.10
2013,04,24,09,51,13.20
2013,04,24,09,52,13.20
2013,04,24,09,53,13.20
2013,04,24,09,54,13.30
2013,04,24,09,55,13.40
2013,04,24,09,56,13.50
2013,04,24,09,57,13.60
2013,04,24,09,58,13.70
2013,04,24,09,59,13.80
2013,04,24,10,00,13.80
2013,04,24,10,01,13.80
2013,04,24,10,02,13.80
2013,04,24,10,03,13.70
2013,04,24,10,04,13.70
2013,04,24,10,05,13.60
2013,04,24,10,06,13.60
2013,04,24,10,07,13.60
2013,04,24,10,08,13.60
2013,04,24,10,09,13.60
2013,04,24,10,10,13.50
2013,04,24,10,11,13.50
2013,04,24,10,12,13.50
2013,04,24,10,13,13.50
2013,04,24,10,14,13.50
2013,04,24,10,15,13.50
2013,04,24,10,16,13.40
2013,04,24,10,17,13.40
2013,04,24,10,18,13.40
2013,04,24,10,19,13.40
2013,04,24,10,20,13.40
2013,04,24,10,21,13.30
2013,04,24,10,22,13.30
2013,04,24,10,23,13.20
2013,04,24,10,24,13.20
2013,04,24,10,25,13.20
2013,04,24,10,26,13.30
2013,04,24,10,27,13.30
2013,04,24,10,28,13.30
2013,04,24,10,29,13.30
2013,04,24,10,30,13.20
2013,04,24,10,31,13.20
2013,04,24,10,32,13.20
2013,04,24,10,33,13.20
2013,04,24,10,34,13.20
2013,04,24,10,35,13.20
2013,04,24,10,36,13.30
2013,04,24,10,37,13.30
2013,04,24,10,38,13.40
2013,04,24,10,39,13.40
2013,04,24,10,40,13.50
2013,04,24,10,41,13.50
2013,04,24,10,42,13.50
2013,04,24,10,43,13.40
2013,04,24,10,44,13.30
2013,04,24,10,45,13.30
2013,04,24,10,46,13.20
2013,04,24,10,47,13.20
2013,04,24,10,48,13.20
2013,04,24,10,49,13.20
2013,04,24,10,50,13.10
2013,04,24,10,51,13.00
2013,04,24,10,52,12.90
2013,04,24,10,53,12.90
2013,04,24,10,54,12.90
2013,04,24,10,55,12.90
2013,04,24,10,56,12.90
2013,04,24,10,57,12.90
2013,04,24,10,58,12.80
2013,04,24,10,59,12.90
2013,04,24,11,00,12.90
2013,04,24,11,01,13.00
2013,04,24,11,02,13.10
2013,04,24,11,03,13.10
2013,04,24,11,04,13.20
2013,04,24,11,05,13.30
2013,04,24,11,06,13.30
2013,04,24,11,07,13.30
2013,04,24,11,08,13.30
2013,04,24,11,09,13.30
2013,04,24,11,10,13.30
2013,04,24,11,11,13.30
2013,04,24,11,12,13.30
2013,04,24,11,13,13.30
2013,04,24,11,14,13.30
2013,04,24,11,15,13.30
2013,04,24,11,16,13.30
2013,04,24,11,17,13.30
2013,04,24,11,18,13.40
2013,04,24,11,19,13.40
2013,04,24,11,20,13.40
2013,04,24,11,21,13.40
2013,04,24,11,22,13.50
2013,04,24,11,23,13.60
2013,04,24,11,24,13.70
2013,04,24,11,25,13.70
2013,04,24,11,26,13.80
2013,04,24,11,27,13.90
2013,04,24,11,28,13.90
2013,04,24,11,29,14.00
2013,04,24,11,30,14.10
2013,04,24,11,31,14.20
2013,04,24,11,32,14.30
2013,04,24,11,33,14.40
2013,04,24,11,34,14.50
2013,04,24,11,35,14.50
2013,04,24,11,36,14.60
2013,04,24,11,37,14.70
2013,04,24,11,38,14.80
2013,04,24,11,39,15.00
2013,04,24,11,40,15.20
2013,04,24,11,41,15.30
2013,04,24,11,42,15.40
2013,04,24,11,43,15.50
2013,04,24,11,44,15.60
2013,04,24,11,45,15.60
2013,04,24,11,46,15.70
2013,04,24,11,47,15.80
2013,04,24,11,48,15.80
2013,04,24,11,49,15.80
2013,04,24,11,50,15.70
2013,04,24,11,51,15.60
2013,04,24,11,52,15.50
2013,04,24,11,53,15.50
2013,04,24,11,54,15.50
2013,04,24,11,55,15.60
2013,04,24,11,56,15.60
2013,04,24,11,57,15.70
2013,04,24,11,58,15.80
2013,04,24,11,59,16.00
2013,04,24,12,00,16.00
2013,04,24,12,01,16.10
2013,04,24,12,02,16.10
2013,04,24,12,03,16.20
2013,04,24,12,04,16.10
2013,04,24,12,05,16.00
2013,04,24,12,06,16.00
2013,04,24,12,07,16.00
2013,04,24,12,08,16.00
2013,04,24,12,09,15.90
2013,04,24,12,10,15.90
2013,04,24,12,11,15.90
2013,04,24,12,12,15.90
2013,04,24,12,13,16.00
2013,04,24,12,14,16.00
2013,04,24,12,15,16.00
2013,04,24,12,16,15.90
2013,04,24,12,17,15.80
2013,04,24,12,18,15.80
2013,04,24,12,19,15.80
2013,04,24,12,20,15.70
2013,04,24,12,21,15.70
2013,04,24,12,22,15.70
2013,04,24,12,23,15.70
2013,04,24,12,24,15.70
2013,04,24,12,25,15.70
2013,04,24,12,26,15.80
2013,04,24,12,27,15.80
2013,04,24,12,28,15.90
2013,04,24,12,29,16.00
2013,04,24,12,30,16.10
2013,04,24,12,31,16.10
2013,04,24,12,32,16.10
2013,04,24,12,33,16.10
2013,04,24,12,34,16.10
2013,04,24,12,35,16.10
2013,04,24,12,36,16.10
2013,04,24,12,37,16.20
2013,04,24,12,38,16.20
2013,04,24,12,39,16.10
2013,04,24,12,40,16.10
2013,04,24,12,41,16.00
2013,04,24,12,42,15.90
2013,04,24,12,43,15.70
2013,04,24,12,44,15.60
2013,04,24,12,45,15.50
2013,04,24,12,46,15.40
2013,04,24,12,47,15.40
2013,04,24,12,48,15.40
2013,04,24,12,49,15.40
2013,04,24,12,50,15.30
2013,04,24,12,51,15.10
2013,04,24,12,52,15.10
2013,04,24,12,53,15.10
2013,04,24,12,54,15.10
2013,04,24,12,55,15.20
2013,04,24,12,56,15.30
2013,04,24,12,57,15.30
2013,04,24,12,58,15.40
2013,04,24,12,59,15.50
2013,04,24,13,00,15.40
2013,04,24,13,01,15.40
2013,04,24,13,02,15.40
2013,04,24,13,03,15.40
2013,04,24,13,04,15.40
2013,04,24,13,05,15.40
2013,04,24,13,06,15.40
2013,04,24,13,07,15.40
2013,04,24,13,08,15.40
2013,04,24,13,09,15.40
2013,04,24,13,10,15.30
2013,04,24,13,11,15.30
2013,04,24,13,12,15.30
2013,04,24,13,13,15.30
2013,04,24,13,14,15.30
2013,04,24,13,15,15.30
2013,04,24,13,16,15.40
2013,04,24,13,17,15.40
2013,04,24,13,18,15.40
2013,04,24,13,19,15.40
2013,04,24,13,20,15.40
2013,04,24,13,21,15.40
2013,04,24,13,22,15.40
2013,04,24,13,23,15.40
2013,04,24,13,24,15.40
2013,04,24,13,25,15.40
2013,04,24,13,26,15.50
2013,04,24,13,27,15.50
2013,04,24,13,28,15.60
2013,04,24,13,29,15.60
2013,04,24,13,30,15.60
2013,04,24,13,31,15.50
2013,04,24,13,32,15.40
2013,04,24,13,33,15.20
2013,04,24,13,34,15.10
2013,04,24,13,35,15.00
2013,04,24,13,36,14.90
2013,04,24,13,37,14.80
2013,04,24,13,38,14.80
2013,04,24,13,39,14.80
2013,04,24,13,40,14.80
2013,04,24,13,41,14.70
2013,04,24,13,42,14.60
2013,04,24,13,43,14.40
2013,04,24,13,44,14.30
2013,04,24,13,45,14.20
2013,04,24,13,46,14.10
2013,04,24,13,47,14.00
2013,04,24,13,48,14.00
2013,04,24,13,49,14.10
2013,04,24,13,50,14.10
2013,04,24,13,51,14.20
2013,04,24,13,52,14.20
2013,04,24,13,53,14.30
2013,04,24,13,54,14.30
2013,04,24,13,55,14.40
2013,04,24,13,56,14.40
2013,04,24,13,57,14.50
2013,04,24,13,58,14.60
2013,04,24,13,59,14.70
2013,04,24,14,00,14.80
2013,04,24,14,01,14.80
2013,04,24,14,02,14.90
2013,04,24,14,03,14.90
2013,04,24,14,04,14.90
2013,04,24,14,05,14.90
2013,04,24,14,06,14.90
2013,04,24,14,07,14.90
2013,04,24,14,08,15.00
2013,04,24,14,09,15.00
2013,04,24,14,10,15.10
2013,04,24,14,11,15.20
2013,04,24,14,12,15.20
2013,04,24,14,13,15.20
2013,04,24,14,14,15.20
2013,04,24,14,15,15.20
2013,04,24,14,16,15.20
2013,04,24,14,17,15.30
2013,04,24,14,18,15.30
2013,04,24,14,19,15.40
2013,04,24,14,20,15.40
2013,04,24,14,21,15.50
2013,04,24,14,22,15.50
2013,04,24,14,23,15.60
2013,04,24,14,24,15.60
2013,04,24,14,25,15.60
2013,04,24,14,26,15.60
2013,04,24,14,27,15.50
2013,04,24,14,28,15.50
2013,04,24,14,29,15.50
2013,04,24,14,30,15.50
2013,04,24,14,31,15.60
2013,04,24,14,32,15.60
2013,04,24,14,33,15.70
2013,04,24,14,34,15.70
2013,04,24,14,35,15.80
2013,04,24,14,36,15.80
2013,04,24,14,37,16.00
2013,04,24,14,38,16.00
2013,04,24,14,39,16.10
2013,04,24,14,40,16.10
2013,04,24,14,41,16.10
2013,04,24,14,42,16.10
2013,04,24,14,43,16.10
2013,04,24,14,44,16.10
2013,04,24,14,45,16.10
2013,04,24,14,46,16.10
2013,04,24,14,47,16.10
2013,04,24,14,48,16.00
2013,04,24,14,49,16.00
2013,04,24,14,50,16.00
2013,04,24,14,51,16.10
2013,04,24,14,52,16.20
2013,04,24,14,53,16.20
2013,04,24,14,54,16.20
2013,04,24,14,55,16.20
2013,04,24,14,56,16.20
2013,04,24,14,57,16.20
2013,04,24,14,58,16.30
2013,04,24,14,59,16.30
2013,04,24,15,00,16.20
2013,04,24,15,01,16.20
2013,04,24,15,02,16.20
2013,04,24,15,03,16.20
2013,04,24,15,04,16.20
2013,04,24,15,05,16.20
2013,04,24,15,06,16.20
2013,04,24,15,07,16.20
2013,04,24,15,08,16.20
2013,04,24,15,09,16.20
2013,04,24,15,10,16.20
2013,04,24,15,11,16.30
2013,04,24,15,12,16.20
2013,04,24,15,13,16.20
2013,04,24,15,14,16.10
2013,04,24,15,15,16.10
2013,04,24,15,16,16.10
2013,04,24,15,17,16.10
2013,04,24,15,18,16.20
2013,04,24,15,19,16.20
2013,04,24,15,20,16.30
2013,04,24,15,21,16.30
2013,04,24,15,22,16.40
2013,04,24,15,23,16.40
2013,04,24,15,24,16.40
2013,04,24,15,25,16.50
2013,04,24,15,26,16.60
2013,04,24,15,27,16.60
2013,04,24,15,28,16.60
2013,04,24,15,29,16.60
2013,04,24,15,30,16.70
2013,04,24,15,31,16.70
2013,04,24,15,32,16.60
2013,04,24,15,33,16.60
2013,04,24,15,34,16.60
2013,04,24,15,35,16.60
2013,04,24,15,36,16.70
2013,04,24,15,37,16.70
2013,04,24,15,38,16.70
2013,04,24,15,39,16.70
2013,04,24,15,40,16.70
2013,04,24,15,41,16.70
2013,04,24,15,42,16.60
2013,04,24,15,43,16.60
2013,04,24,15,44,16.60
2013,04,24,15,45,16.60
2013,04,24,15,46,16.60
2013,04,24,15,47,16.60
2013,04,24,15,48,16.60
2013,04,24,15,49,16.60
2013,04,24,15,50,16.60
2013,04,24,15,51,16.50
2013,04,24,15,52,16.50
2013,04,24,15,53,16.40
2013,04,24,15,54,16.40
2013,04,24,15,55,16.40
2013,04,24,15,56,16.40
2013,04,24,15,57,16.30
2013,04,24,15,58,16.30
2013,04,24,15,59,16.20
2013,04,24,16,00,16.20
2013,04,24,16,01,16.20
2013,04,24,16,02,16.20
2013,04,24,16,03,16.20
2013,04,24,16,04,16.30
2013,04,24,16,05,16.30
2013,04,24,16,06,16.30
2013,04,24,16,07,16.30
2013,04,24,16,08,16.40
2013,04,24,16,09,16.40
2013,04,24,16,10,16.40
2013,04,24,16,11,16.40
2013,04,24,16,12,16.40
2013,04,24,16,13,16.50
2013,04,24,16,14,16.50
2013,04,24,16,15,16.40
2013,04,24,16,16,16.30
2013,04,24,16,17,16.20
2013,04,24,16,18,16.20
2013,04,24,16,19,16.20
2013,04,24,16,20,16.10
2013,04,24,16,21,16.00
2013,04,24,16,22,15.90
2013,04,24,16,23,15.80
2013,04,24,16,24,15.80
2013,04,24,16,25,15.80
2013,04,24,16,26,15.80
2013,04,24,16,27,15.80
2013,04,24,16,28,15.90
2013,04,24,16,29,15.90
2013,04,24,16,30,16.00
2013,04,24,16,31,16.10
2013,04,24,16,32,16.10
2013,04,24,16,33,16.10
2013,04,24,16,34,16.10
2013,04,24,16,35,16.10
2013,04,24,16,36,16.10
2013,04,24,16,37,16.20
2013,04,24,16,38,16.20
2013,04,24,16,39,16.20
2013,04,24,16,40,16.20
2013,04,24,16,41,16.30
2013,04,24,16,42,16.30
2013,04,24,16,43,16.30
2013,04,24,16,44,16.40
2013,04,24,16,45,16.40
2013,04,24,16,46,16.50
2013,04,24,16,47,16.60
2013,04,24,16,48,16.60
2013,04,24,16,49,16.70
2013,04,24,16,50,16.70
2013,04,24,16,51,16.70
2013,04,24,16,52,16.60
2013,04,24,16,53,16.40
2013,04,24,16,54,16.20
2013,04,24,16,55,16.00
2013,04,24,16,56,15.90
2013,04,24,16,57,15.80
2013,04,24,16,58,15.70
2013,04,24,16,59,15.60
2013,04,24,17,00,15.40
2013,04,24,17,01,15.40
2013,04,24,17,02,15.30
2013,04,24,17,03,15.30
2013,04,24,17,04,15.30
2013,04,24,17,05,15.30
2013,04,24,17,06,15.30
2013,04,24,17,07,15.30
2013,04,24,17,08,15.30
2013,04,24,17,09,15.30
2013,04,24,17,10,15.30
2013,04,24,17,11,15.30
2013,04,24,17,12,15.30
2013,04,24,17,13,15.40
2013,04,24,17,14,15.40
2013,04,24,17,15,15.40
2013,04,24,17,16,15.50
2013,04,24,17,17,15.50
2013,04,24,17,18,15.50
2013,04,24,17,19,15.40
2013,04,24,17,20,15.30
2013,04,24,17,21,15.30
2013,04,24,17,22,15.20
2013,04,24,17,23,15.20
2013,04,24,17,24,15.10
2013,04,24,17,25,15.10
2013,04,24,17,26,15.10
2013,04,24,17,27,15.10
2013,04,24,17,28,15.10
2013,04,24,17,29,15.10
2013,04,24,17,30,15.20
2013,04,24,17,31,15.20
2013,04,24,17,32,15.20
2013,04,24,17,33,15.20
2013,04,24,17,34,15.30
2013,04,24,17,35,15.30
2013,04,24,17,36,15.30
2013,04,24,17,37,15.40
2013,04,24,17,38,15.40
2013,04,24,17,39,15.40